TEVEL-6 (50999 NORAD) Tracking and Keplerian Element Data

This shows tracking and keplerian element data for the satellite.

Feedback or suggestion? Click here.




ElementValue
Catalog50999
NameTEVEL-6
Epoch Orbit4718
Epoch Day325.28398971
Epoch Year2022
RAAN29.908
Inclination97.4635
Eccentricity0.0009671
Argument of Perigee228.5946
Mean Anonmoly204.0125
Mean Motion15.17442441
Decay Rate8.386E-05
L11 50999U 22002R 22325.28398971 .00008386 00000+0 42180-3 0 9991
L22 50999 97.4635 29.9080 0009671 228.5946 204.0125 15.17442441 47182



Live tracking and technical data element details for TEVEL-6 (NORAD 50999). TEVEL-6 can be tracked NOW for your location showing map with azimuth and elevation plus other details from your city location.







IsCatalogInMostPopularTable: catalog: 50999, numindb: 40
Update: records affected: 1



GetName: 50999 TEVEL-6

Hit Count: updated at: Mon, 28 Nov 2022 05:02:31 GMT